User: anonymous   Login
Location: Caltech
(34.1382°N, 118.1253°W)
Time: 02:14:30
(UTC-08:00)
Language:

SL-16 R/B - Orbit

View from above orbital plane
View from above orbital plane
View from above satellite
View from above satellite

Ground track
Ground track

The orbit data is extracted from the following two-line orbital elements,

1 28353U 04021B   14324.88032072 -.00000197  00000-0 -78318-4 0  8878
2 28353 071.0021 248.2249 0005562 213.9328 202.3827 14.14103889539371
Epoch (UTC): 20 November 2014 21:07:39
Eccentricity: 0.0005562
inclination: 71.0021°
perigee height: 841 km
apogee height: 849 km
right ascension of ascending node: 248.2249°
argument of perigee: 213.9328°
revolutions per day: 14.14103889
mean anomaly at epoch: 202.3827°
orbit number at epoch: 53937

The dashed part of the orbit path shows where the satellite is in the earth's shadow,  

DLR